Вернуться в каталог

ONEWEB-0250

АктивенСвязьPO
NORAD 48968·PAYLOAD·🇬🇧 United Kingdom

Запущен Jul 1, 2021 с Vostochny Cosmodrome

Loading…

Ближайшие Пролёты (ближайшие 24 часа)

TLE

СвежийSource: CelesTrak SupGP

Эпоха: Sep 14, 2026, 12:41 UTC

1 48968C 21060B   26257.52862683 -.00002724  00000+0 -62215-2 0  2577
2 48968  87.9156 208.5058 0001068  76.8671  10.7897 13.25839384    10

Отслеживайте ONEWEB-0250 в реальном времени с AllMySat

Download on the App Store